Weather observations for the past three days for
Amarillo, Amarillo International Airport
Metric (Imperial)
Date Time (cdt) Wind (kph) Vis. (km) Weather Sky Cond. Temperature (ºC) Relative Humidity Wind Chill (°C) Heat Index (°C) Pressure Precipitation (cm)
Air Dwpt 6 hour altimeter (cm) sea level (mb) 1 hr 3 hr 6 hr
Max. Min.
15 06:53 SW 17 16.09 Fair CLR 21.1 12.2 26.1 21.1 57% 76.38 1011.9
15 05:53 SW 15 16.09 Fair CLR 21.1 12.2 57% 76.35 1011.5
15 04:53 SW 19 16.09 Fair CLR 22.8 12.2 51% 76.35 1011.1
15 03:53 SW 17 16.09 Fair CLR 23.3 12.2 50% 76.35 1011.0
15 02:53 S 19 16.09 Fair CLR 24.4 11.7 45% 26 76.35 1011.3
15 01:53 S 19 16.09 Fair CLR 25 11.1 42% 26 76.4 1011.9
15 00:53 S 19 16.09 Fair CLR 26.1 11.7 37.2 26.1 41% 26 76.43 1012.2
14 23:53 S 20 16.09 Fair CLR 27.8 11.7 37% 27 76.4 1011.9
14 22:53 S 20 16.09 Fair CLR 29.4 11.7 33% 28 76.38 1011.5
14 21:53 S 20 16.09 Fair CLR 30.6 12.2 32% 30 76.35 1011.3
14 20:53 S 19 16.09 Fair CLR 33.3 12.2 28% 32 76.35 1011.1
14 19:53 S 24 16.09 Fair CLR 36.1 11.7 23% 35 76.35 1011.3
14 18:53 SW 22 G 41 16.09 Fair CLR 37.2 11.7 38.9 36.1 21% 36 76.35 1011.6
14 17:53 SW 26 G 39 16.09 Fair CLR 38.3 10.6 19% 37 76.38 1011.9
14 16:53 S 31 G 44 16.09 Fair CLR 38.3 11.7 20% 37 76.4 1011.8
14 15:53 S 31 G 48 16.09 Fair CLR 38.3 11.7 20% 37 76.43 1012.3
14 14:53 S 31 G 48 16.09 Fair CLR 37.8 11.7 21% 37 76.45 1012.6
14 13:53 S 31 G 43 16.09 Fair CLR 38.3 12.8 22% 37 76.5 1013.2
14 12:53 SW 17 G 44 16.09 Fair CLR 36.7 12.2 36.7 20 23% 36 76.58 1014.3
14 11:53 SW 28 16.09 Fair CLR 35 13.3 27% 34 76.58 1014.6
14 10:53 SW 31 16.09 Fair CLR 32.8 15.6 35% 33 76.63 1015.1
14 09:53 SW 31 16.09 Fair CLR 30 15.6 42% 30 76.66 1015.4
14 08:53 SW 30 16.09 Fair CLR 27.2 15 47% 27 76.66 1015.5
14 07:53 SW 19 16.09 Fair CLR 22.8 12.8 53% 76.66 1015.7
14 06:53 SW 22 16.09 Fair CLR 20.6 11.7 24.4 18.9 57% 76.61 1015.0
14 05:53 SW 13 16.09 Fair CLR 19.4 10.6 57% 76.58 1014.8
14 04:53 SW 17 16.09 Fair CLR 21.1 10.6 51% 76.53 1014.0
14 03:53 SW 13 16.09 Fair CLR 21.1 10 49% 76.53 1014.0
14 02:53 S 19 16.09 Fair CLR 24.4 10 40% 25 76.56 1013.9
14 01:53 S 19 16.09 Fair CLR 23.9 10.6 43% 25 76.63 1014.9
14 00:53 S 17 16.09 Fair CLR 24.4 10 36.7 24.4 40% 25 76.66 1015.6
13 23:53 SW 15 16.09 Fair CLR 25 10 39% 26 76.66 1015.6
13 22:53 S 22 16.09 Fair CLR 28.3 9.4 31% 27 76.63 1014.8
13 21:53 S 19 16.09 Fair CLR 29.4 8.9 28% 28 76.58 1014.4
13 20:53 S 19 16.09 Fair CLR 32.8 8.3 22% 31 76.56 1013.9
13 19:53 S 30 16.09 Fair CLR 35 8.3 19% 33 76.5 1013.7
13 18:53 S 15 16.09 Fair CLR 36.7 7.8 38.3 35.6 17% 35 76.5 1013.5
13 17:53 S 15 G 30 16.09 Fair CLR 36.7 6.7 16% 34 76.5 1013.5
13 16:53 Calm 16.09 Fair CLR 37.8 6.7 15% 35 76.56 1013.9
13 15:53 S 11 G 37 16.09 Fair CLR 37.2 6.7 15% 35 76.58 1014.2
13 14:53 S 31 G 41 16.09 Fair CLR 37.8 6.7 15% 35 76.61 1014.3
13 13:53 S 24 G 46 16.09 Fair CLR 36.7 7.2 16% 34 76.63 1014.9
13 12:53 S 22 G 41 16.09 Fair CLR 35.6 8.3 36.7 22.2 19% 34 76.66 1015.3
13 11:53 SW 22 G 35 16.09 Fair CLR 35 10 22% 33 76.68 1015.4
13 10:53 SW 28 G 37 16.09 Fair CLR 33.3 11.7 27% 32 76.71 1015.9
13 09:53 W 28 16.09 Fair CLR 30.6 12.2 32% 30 76.73 1016.4
13 08:53 SW 24 G 37 16.09 Fair CLR 28.3 12.2 37% 28 76.73 1016.2
13 07:53 SW 20 16.09 Fair CLR 23.9 13.3 52% 25 76.71 1016.2
13 06:53 S 19 16.09 Fair CLR 22.2 12.2 27.8 22.2 53% 76.68 1016.0
13 05:53 SW 20 16.09 Fair CLR 22.8 12.8 53% 76.63 1015.0
13 04:53 S 28 16.09 Fair CLR 24.4 11.7 45% 26 76.58 1014.4
13 03:53 S 24 16.09 Fair CLR 24.4 11.7 45% 26 76.58 1014.3
13 02:53 S 31 16.09 Fair CLR 26.1 12.2 42% 26 76.58 1014.3
13 01:53 S 24 16.09 Fair CLR 26.7 11.7 39% 27 76.61 1014.6
13 00:53 S 24 16.09 Fair CLR 27.8 11.1 36.7 27.8 35% 27 76.61 1014.2
12 23:53 S 28 16.09 Fair CLR 28.9 10.6 32% 28 76.58 1014.0
12 22:53 S 28 16.09 Fair CLR 29.4 10 30% 28 76.53 1013.6
12 21:53 S 24 16.09 Fair CLR 30 8.9 27% 29 76.48 1012.8
12 20:53 S 22 16.09 Fair CLR 32.2 8.3 23% 30 76.43 1012.3
12 19:53 S 26 16.09 Fair CLR 35 7.8 19% 33 76.4 1012.0
12 18:53 SW 30 16.09 Fair CLR 36.7 7.2 38.9 35.6 16% 34 76.38 1011.7
12 17:53 S 19 G 39 16.09 Fair CLR 37.8 7.2 15% 36 76.38 1011.7
12 16:53 S 26 G 41 16.09 Fair CLR 37.8 7.8 16% 36 76.4 1011.9
12 15:53 SW 17 G 43 16.09 A Few Clouds FEW120 37.8 7.2 15% 36 76.43 1012.5
12 14:53 S 28 G 39 16.09 Fair CLR 36.7 8.3 17% 35 76.45 1012.8
12 13:53 Calm 16.09 A Few Clouds FEW110 37.2 7.8 16% 35 76.5 1013.2
12 12:53 S 20 G 33 16.09 Fair CLR 37.2 8.9 37.2 22.2 18% 35 76.53 1013.7
12 11:53 SW 30 G 37 16.09 Fair CLR 35.6 8.9 19% 34 76.56 1014.0
12 10:53 W 28 16.09 Fair CLR 33.3 10.6 25% 32 76.58 1014.4
12 09:53 W 30 G 41 16.09 Fair CLR 30.6 10.6 29% 29 76.58 1014.7
12 08:53 SW 24 16.09 Fair CLR 27.2 10.6 35% 27 76.58 1014.6
12 07:53 SW 24 16.09 Fair CLR 23.9 10.6 43% 25 76.53 1014.0
Date Time (cdt) Wind (kph) Vis. (km) Weather Sky Cond. Air Dwpt Max. Min. Relative Humidity Wind Chill (°C) Heat Index (°C) altimeter (cm) sea level (mb) 1 hr 3 hr 6 hr
6 hour
Temperature (ºC) Pressure Precipitation (cm)